User: anonymous   Login
Location: Dover
(39.1580°N, 75.5250°W)
Time: 09:12:46
(UTC-04:00)
Language:

Cosmos 1437 Rocket - Orbit

View from above orbital plane
View from above orbital plane
View from above satellite
View from above satellite

Ground track
Ground track

The orbit data is extracted from the following two-line orbital elements,

1 13771U 83003B   15089.84645356  .00004649  00000-0  29764-3 0  9991
2 13771 081.1583 215.2770 0031064 165.0236 195.1916 15.07984089751723
Epoch (UTC): 30 March 2015 20:18:53
Eccentricity: 0.0031064
inclination: 81.1583°
perigee height: 521 km
apogee height: 564 km
right ascension of ascending node: 215.2770°
argument of perigee: 165.0236°
revolutions per day: 15.07984089
mean anomaly at epoch: 195.1916°
orbit number at epoch: 75172

The dashed part of the orbit path shows where the satellite is in the earth's shadow,  

DLR